Regional Weather Roundup
Issued by NWS

Home | Current Version | Previous Version | Graphics & Text | Print | Product List | Glossary On
Versions: 1 2 3 4 5 6 7 8 9 10 11 12 13 14 15 16 17 18 19 20 21 22 23 24 25 26 27 28 29 30 31 32 33 34 35 36 37 38 39 40 41 42 43 44 45 46 47 48 49 50
000
ASUS43 KIND 012159
RWRIN

WEATHER ROUNDUP FOR INDIANA
NATIONAL WEATHER SERVICE INDIANAPOLIS IN
600 PM EDT MON SEP 01 2014

NOTE: "FAIR" INDICATES FEW OR NO CLOUDS BELOW 12,000 FEET WITH NO
SIGNIFICANT WEATHER AND/OR OBSTRUCTIONS TO VISIBILITY.

* - STATION DOES NOT REPORT WEATHER SUCH AS PRECIPITATION OR FOG.

+ - STATION NOT QUALITY CONTROLLED BY THE NATIONAL WEATHER SERVICE.
    USE DATA WITH CAUTION...ESPECIALLY DEWPOINT AND RELATIVE
    HUMIDITY OBSERVATIONS.

INZ001>003-010>013-019-020-012300-
NORTHWEST INDIANA

CITY           SKY/WX    TMP DP  RH WIND       PRES   REMARKS
GARY /AIRPORT/ PTSUNNY   84  63  48 SW14G25   29.79R
KNOX *+        PTSUNNY   80  67  64 SW9G18    29.79R
MONTICELLO +   MOSUNNY   82  69  64 SW17G24   29.82R
VALPARAISO     SUNNY     83  64  52 SW15G24   29.80R

$$

LMZ046-743>745-012300-
SOUTHERN LAKE MICHIGAN

STATION/POSITION TIME  TEMP WIND        PRES
                       AIR  DIR/SP/G
                 (UTC) (F)  (DEG/KT/KT) (MB)
MICHIGAN CITY    2100   78  230/ 14/ 18   N/A

$$

INZ004-005-014>016-021>024-012300-
NORTH CENTRAL INDIANA

CITY           SKY/WX    TMP DP  RH WIND       PRES   REMARKS
ELKHART        SUNNY     82  70  65 SW12      29.79S
GOSHEN         PTSUNNY   81  70  69 W10       29.79S
SOUTH BEND     MOSUNNY   84  68  58 SW12      29.79R

$$

INZ006>009-017-018-025>027-012300-
NORTHEAST INDIANA

CITY           SKY/WX    TMP DP  RH WIND       PRES   REMARKS
ANGOLA *+      PTSUNNY   82  75  78 W15       29.79S
FORT WAYNE     PTSUNNY   79  70  74 SW13      29.84R

$$

INZ028-029-035-036-043>045-051>053-012300-
WEST CENTRAL INDIANA

CITY           SKY/WX    TMP DP  RH WIND       PRES   REMARKS
GREENCASTLE +  PTSUNNY   81  70  69 SW7       29.89S
LAFAYETTE      MOSUNNY   80  66  62 W14G21    29.83R
TERRE HAUTE    PTSUNNY   83  67  58 SW12      29.87F

$$

INZ030>032-037>040-046>048-054>057-064-065-012300-
CENTRAL INDIANA

CITY           SKY/WX    TMP DP  RH WIND       PRES   REMARKS
FRANKFORT +    PTSUNNY   81  71  71 SW14G24   29.86S
INDIANAPOLIS   CLOUDY    82  70  66 SW16G22   29.87F
-EAGLE CREEK   CLOUDY    81  68  64 SW12G24   29.87F
KOKOMO *+      PTSUNNY   82  70  65 SW20G31   29.84S
MT COMFORT *+  CLOUDY    82  73  74 SW13G18   29.89S
SHELBYVILLE    HVY RAIN  79  72  79 W22G29    29.90R

$$

INZ033-034-041-042-049-050-058-059-012300-
EAST CENTRAL INDIANA

CITY           SKY/WX    TMP DP  RH WIND       PRES   REMARKS
MUNCIE         CLOUDY    81  70  69 SW12G23   29.87R

$$

INZ060-061-067>069-081>083-085>088-012300-
SOUTHWEST INDIANA

CITY           SKY/WX    TMP DP  RH WIND       PRES   REMARKS
EVANSVILLE     CLOUDY    84  72  67 W13       29.94R

$$

INZ062-063-066-070>080-084-089>092-012300-
SOUTH CENTRAL AND SOUTHEAST INDIANA

CITY           SKY/WX    TMP DP  RH WIND       PRES   REMARKS
BLOOMINGTON    CLOUDY    80  71  74 SW10      29.92R

$$




USA.gov is the U.S. government's official web portal to all federal, state and local government web resources and services.